FFT9412 MMUN-KMCO

Flight info

Callsign FFT9412
Flight time 1h 51m
Altitude 39000
Route NUDAL1A NUDAL UV106 PODON UG765 MAXIM Y262 TUNSL DCT KUTNE MUNGI1
Aircraft A20N/M-SDE2E3FGHIRWXY/LB1

Departure

Time 2026-05-07 21:00
Airport Cancún International Airport (MMUN)

Arrival

Time 2026-05-07 22:51
Airport Orlando International Airport (KMCO)
Time Latitude Longitude Altitude Speed Heading
2026-05-07 20:46 21.04884 -86.88217 28 ft 0 kts 124°
2026-05-07 20:51 21.04894 -86.88234 28 ft 4 kts 124°
2026-05-07 20:51 21.04910 -86.88256 28 ft 4 kts 146°
2026-05-07 20:52 21.04933 -86.88263 28 ft 4 kts 202°
2026-05-07 20:52 21.04945 -86.88257 28 ft 1 kts 213°
2026-05-07 20:52 21.04945 -86.88256 28 ft 0 kts 213°
2026-05-07 20:55 21.04944 -86.88257 28 ft 1 kts 213°
2026-05-07 20:55 21.04909 -86.88282 28 ft 12 kts 213°
2026-05-07 20:56 21.04809 -86.88353 28 ft 22 kts 213°
2026-05-07 20:56 21.04654 -86.88460 29 ft 29 kts 214°
2026-05-07 20:56 21.04515 -86.88559 29 ft 22 kts 213°
2026-05-07 20:56 21.04467 -86.88680 30 ft 21 kts 302°
2026-05-07 20:57 21.04552 -86.88815 30 ft 23 kts 307°
2026-05-07 20:57 21.04635 -86.88951 30 ft 16 kts 291°
2026-05-07 20:57 21.04615 -86.89021 30 ft 2 kts 220°
2026-05-07 20:57 21.04608 -86.89027 31 ft 0 kts 218°
2026-05-07 20:58 21.04604 -86.89030 31 ft 0 kts 217°
2026-05-07 20:58 21.04598 -86.89035 31 ft 2 kts 215°
2026-05-07 20:58 21.04576 -86.89051 31 ft 6 kts 216°
2026-05-07 20:58 21.04518 -86.89075 31 ft 9 kts 161°
2026-05-07 20:59 21.04478 -86.89010 32 ft 23 kts 124°
2026-05-07 20:59 21.04251 -86.88650 35 ft 91 kts 124°
2026-05-07 20:59 21.03792 -86.87917 37 ft 143 kts 124°
2026-05-07 20:59 21.03225 -86.87018 508 ft 146 kts 126°
2026-05-07 21:00 21.02655 -86.86106 995 ft 148 kts 126°
2026-05-07 21:00 21.02108 -86.85179 1573 ft 146 kts 123°
2026-05-07 21:00 21.01561 -86.84171 1821 ft 169 kts 123°
2026-05-07 21:00 21.00939 -86.83007 2129 ft 191 kts 121°
2026-05-07 21:01 21.00267 -86.81694 2637 ft 212 kts 120°
2026-05-07 21:01 20.99543 -86.80251 3163 ft 234 kts 120°
2026-05-07 21:01 20.98748 -86.78648 3812 ft 251 kts 120°
2026-05-07 21:01 20.97914 -86.76963 4159 ft 257 kts 120°
2026-05-07 21:02 20.97082 -86.75279 4269 ft 257 kts 120°
2026-05-07 21:02 20.96312 -86.73548 4372 ft 260 kts 110°
2026-05-07 21:02 20.96069 -86.71627 4471 ft 265 kts 90°
2026-05-07 21:02 20.96386 -86.69665 4692 ft 270 kts 81°
2026-05-07 21:03 20.96773 -86.67687 5380 ft 273 kts 81°
2026-05-07 21:03 20.97153 -86.65698 6446 ft 273 kts 82°
2026-05-07 21:03 20.97531 -86.63691 7321 ft 277 kts 81°
2026-05-07 21:03 20.97911 -86.61652 8200 ft 281 kts 81°
2026-05-07 21:04 20.98326 -86.59590 9055 ft 285 kts 76°
2026-05-07 21:04 20.98988 -86.57584 9964 ft 288 kts 70°
2026-05-07 21:04 20.99707 -86.55539 10453 ft 304 kts 70°
2026-05-07 21:04 21.00474 -86.53340 10714 ft 326 kts 71°
2026-05-07 21:05 21.01285 -86.51005 11144 ft 340 kts 71°
2026-05-07 21:05 21.02117 -86.48612 11865 ft 343 kts 71°
2026-05-07 21:05 21.02951 -86.46215 12676 ft 345 kts 71°
2026-05-07 21:05 21.03794 -86.43786 13304 ft 350 kts 71°
2026-05-07 21:06 21.04633 -86.41370 14049 ft 351 kts 71°
2026-05-07 21:06 21.05488 -86.38903 14634 ft 356 kts 71°
2026-05-07 21:06 21.06352 -86.36409 15298 ft 357 kts 71°
2026-05-07 21:06 21.07221 -86.33900 15897 ft 362 kts 71°
2026-05-07 21:07 21.08101 -86.31359 16528 ft 364 kts 71°
2026-05-07 21:07 21.08985 -86.28804 17152 ft 368 kts 70°
2026-05-07 21:07 21.09879 -86.26220 17745 ft 371 kts 70°
2026-05-07 21:07 21.10779 -86.23618 18321 ft 376 kts 70°
2026-05-07 21:08 21.11694 -86.20969 18792 ft 380 kts 71°
2026-05-07 21:08 21.12614 -86.18308 19331 ft 384 kts 71°
2026-05-07 21:08 21.13547 -86.15604 19760 ft 389 kts 71°
2026-05-07 21:08 21.14487 -86.12884 20304 ft 392 kts 71°
2026-05-07 21:09 21.15431 -86.10146 20676 ft 399 kts 71°
2026-05-07 21:09 21.16397 -86.07344 21172 ft 403 kts 71°
2026-05-07 21:09 21.17375 -86.04505 21609 ft 409 kts 71°
2026-05-07 21:09 21.18367 -86.01626 22072 ft 413 kts 72°
2026-05-07 21:10 21.19319 -85.98699 22512 ft 417 kts 76°
2026-05-07 21:10 21.19978 -85.95662 22963 ft 420 kts 81°
2026-05-07 21:10 21.20554 -85.92578 23424 ft 424 kts 81°
2026-05-07 21:10 21.21146 -85.89456 23825 ft 428 kts 81°
2026-05-07 21:11 21.21745 -85.86314 24245 ft 431 kts 80°
2026-05-07 21:11 21.22347 -85.83149 24632 ft 435 kts 80°
2026-05-07 21:11 21.23556 -85.76782 25392 ft 442 kts 80°
2026-05-07 21:12 21.24169 -85.73543 25781 ft 445 kts 80°
2026-05-07 21:12 21.24787 -85.70272 26124 ft 449 kts 80°
2026-05-07 21:12 21.25411 -85.66979 26523 ft 452 kts 79°
2026-05-07 21:12 21.26375 -85.63761 26852 ft 458 kts 66°
2026-05-07 21:13 21.27985 -85.60803 27221 ft 461 kts 53°
2026-05-07 21:13 21.30148 -85.58259 27560 ft 464 kts 43°
2026-05-07 21:13 21.32549 -85.55924 27949 ft 467 kts 41°
2026-05-07 21:13 21.34972 -85.53597 28296 ft 469 kts 41°
2026-05-07 21:14 21.37409 -85.51249 28636 ft 472 kts 41°
2026-05-07 21:14 21.39853 -85.48882 28981 ft 474 kts 41°
2026-05-07 21:14 21.42302 -85.46498 29322 ft 477 kts 41°
2026-05-07 21:14 21.44766 -85.44094 29651 ft 479 kts 41°
2026-05-07 21:15 21.47237 -85.41679 29980 ft 482 kts 41°
2026-05-07 21:15 21.49717 -85.39253 30318 ft 483 kts 41°
2026-05-07 21:15 21.52208 -85.36816 30623 ft 485 kts 41°
2026-05-07 21:15 21.54710 -85.34366 30920 ft 487 kts 41°
2026-05-07 21:16 21.57218 -85.31911 31256 ft 489 kts 41°
2026-05-07 21:16 21.59728 -85.29452 31659 ft 488 kts 41°
2026-05-07 21:16 21.62234 -85.26994 32076 ft 487 kts 41°
2026-05-07 21:16 21.64735 -85.24541 32486 ft 486 kts 41°
2026-05-07 21:17 21.67230 -85.22093 32887 ft 485 kts 40°
2026-05-07 21:17 21.69722 -85.19647 33270 ft 484 kts 40°
2026-05-07 21:17 21.72174 -85.17238 33658 ft 484 kts 40°
2026-05-07 21:17 21.74661 -85.14795 34033 ft 483 kts 40°
2026-05-07 21:18 21.77139 -85.12358 34371 ft 481 kts 40°
2026-05-07 21:18 21.79601 -85.09936 34732 ft 479 kts 40°
2026-05-07 21:18 21.82052 -85.07525 35082 ft 477 kts 40°
2026-05-07 21:18 21.84495 -85.05120 35422 ft 475 kts 40°
2026-05-07 21:19 21.86929 -85.02724 35753 ft 473 kts 40°
2026-05-07 21:19 21.89353 -85.00336 36074 ft 472 kts 40°
2026-05-07 21:19 21.91768 -84.97956 36393 ft 470 kts 40°
2026-05-07 21:19 21.94174 -84.95584 36707 ft 468 kts 40°
2026-05-07 21:20 21.96570 -84.93220 37012 ft 467 kts 40°
2026-05-07 21:20 21.98937 -84.90884 37306 ft 465 kts 40°
2026-05-07 21:20 22.01320 -84.88530 37591 ft 464 kts 39°
2026-05-07 21:20 22.03692 -84.86187 37864 ft 462 kts 39°
2026-05-07 21:21 22.06058 -84.83848 38135 ft 461 kts 39°
2026-05-07 21:21 22.08422 -84.81509 38397 ft 460 kts 39°
2026-05-07 21:21 22.10775 -84.79181 38637 ft 458 kts 39°
2026-05-07 21:21 22.13122 -84.76859 38835 ft 457 kts 39°
2026-05-07 21:22 22.15465 -84.74539 38960 ft 457 kts 39°
2026-05-07 21:22 22.17810 -84.72216 38986 ft 457 kts 39°
2026-05-07 21:22 22.22459 -84.67607 38990 ft 456 kts 39°
2026-05-07 21:23 22.27138 -84.62964 39002 ft 457 kts 39°
2026-05-07 21:23 22.31813 -84.58320 38995 ft 456 kts 39°
2026-05-07 21:24 22.36492 -84.53668 38997 ft 457 kts 39°
2026-05-07 21:24 22.41164 -84.49018 38993 ft 457 kts 39°
2026-05-07 21:25 22.45845 -84.44356 38995 ft 457 kts 39°
2026-05-07 21:25 22.50496 -84.39718 38998 ft 457 kts 39°
2026-05-07 21:26 22.55169 -84.35054 39007 ft 457 kts 39°
2026-05-07 21:26 22.59846 -84.30382 38995 ft 457 kts 39°
2026-05-07 21:27 22.64504 -84.25681 38995 ft 458 kts 42°
2026-05-07 21:27 22.68713 -84.20467 38996 ft 460 kts 47°
2026-05-07 21:28 22.72824 -84.15155 39003 ft 460 kts 47°
2026-05-07 21:28 22.76959 -84.09868 38994 ft 460 kts 46°
2026-05-07 21:29 22.81137 -84.04610 39002 ft 460 kts 46°
2026-05-07 21:29 22.85272 -83.99388 38992 ft 459 kts 46°
2026-05-07 21:30 22.89435 -83.94114 38994 ft 459 kts 46°
2026-05-07 21:30 22.93587 -83.88848 38992 ft 459 kts 46°
2026-05-07 21:31 22.97740 -83.83574 38986 ft 459 kts 46°
2026-05-07 21:31 23.01886 -83.78303 38984 ft 459 kts 46°
2026-05-07 21:32 23.06037 -83.73020 38991 ft 459 kts 46°
2026-05-07 21:32 23.10182 -83.67740 38990 ft 459 kts 46°
2026-05-07 21:33 23.14328 -83.62453 38993 ft 459 kts 46°
2026-05-07 21:33 23.18469 -83.57167 38992 ft 459 kts 46°
2026-05-07 21:34 23.22614 -83.51871 38992 ft 459 kts 46°
2026-05-07 21:34 23.26751 -83.46579 38998 ft 459 kts 46°
2026-05-07 21:35 23.30890 -83.41280 39000 ft 460 kts 46°
2026-05-07 21:35 23.35003 -83.36006 39000 ft 460 kts 46°
2026-05-07 21:36 23.39148 -83.30688 39006 ft 460 kts 46°
2026-05-07 21:36 23.43283 -83.25376 39007 ft 460 kts 46°
2026-05-07 21:37 23.47422 -83.20054 39011 ft 460 kts 46°
2026-05-07 21:37 23.50858 -83.15630 39011 ft 460 kts 46°
2026-05-07 21:38 23.54999 -83.10297 39009 ft 460 kts 46°
2026-05-07 21:38 23.59130 -83.04963 39009 ft 460 kts 47°
2026-05-07 21:39 23.63263 -82.99621 39012 ft 461 kts 46°
2026-05-07 21:39 23.67397 -82.94274 39013 ft 461 kts 46°
2026-05-07 21:40 23.71505 -82.88953 39015 ft 461 kts 47°
2026-05-07 21:40 23.75636 -82.83598 39019 ft 461 kts 47°
2026-05-07 21:41 23.79764 -82.78240 39018 ft 461 kts 47°
2026-05-07 21:41 23.83893 -82.72876 39012 ft 461 kts 47°
2026-05-07 21:42 23.88020 -82.67507 39015 ft 461 kts 47°
2026-05-07 21:42 23.92136 -82.62147 39013 ft 462 kts 47°
2026-05-07 21:43 23.96265 -82.56766 39015 ft 462 kts 47°
2026-05-07 21:43 24.00386 -82.51439 39015 ft 461 kts 44°
2026-05-07 21:44 24.04795 -82.46360 39017 ft 460 kts 43°
2026-05-07 21:44 24.09203 -82.41267 39021 ft 461 kts 43°
2026-05-07 21:45 24.13609 -82.36170 39019 ft 461 kts 43°
2026-05-07 21:45 24.18015 -82.31069 39020 ft 461 kts 43°
2026-05-07 21:46 24.22423 -82.25959 39025 ft 461 kts 43°
2026-05-07 21:46 24.26836 -82.20839 39026 ft 462 kts 43°
2026-05-07 21:47 24.31247 -82.15716 39031 ft 462 kts 43°
2026-05-07 21:47 24.35627 -82.10623 39031 ft 462 kts 43°
2026-05-07 21:48 24.40037 -82.05489 39035 ft 462 kts 43°
2026-05-07 21:48 24.44447 -82.00350 39039 ft 462 kts 43°
2026-05-07 21:49 24.48857 -81.95212 39045 ft 462 kts 42°
2026-05-07 21:49 24.53470 -81.90324 39045 ft 460 kts 39°
2026-05-07 21:50 24.58135 -81.85502 39047 ft 460 kts 40°
2026-05-07 21:50 24.62738 -81.80674 39039 ft 460 kts 40°
2026-05-07 21:51 24.67360 -81.75797 39044 ft 460 kts 40°
2026-05-07 21:51 24.71979 -81.70916 39043 ft 460 kts 40°
2026-05-07 21:52 24.76598 -81.66030 39042 ft 460 kts 40°
2026-05-07 21:52 24.81215 -81.61141 39030 ft 460 kts 40°
2026-05-07 21:53 24.85827 -81.56253 39031 ft 460 kts 40°
2026-05-07 21:53 24.90446 -81.51352 39031 ft 460 kts 40°
2026-05-07 21:54 24.95092 -81.46567 39028 ft 460 kts 39°
2026-05-07 21:54 24.99790 -81.41785 39027 ft 460 kts 39°
2026-05-07 21:55 25.04476 -81.36988 39031 ft 460 kts 39°
2026-05-07 21:55 25.09163 -81.32176 39030 ft 460 kts 39°
2026-05-07 21:56 25.13849 -81.27357 39029 ft 460 kts 39°
2026-05-07 21:56 25.18537 -81.22532 39029 ft 461 kts 39°
2026-05-07 21:57 25.23200 -81.17727 39028 ft 461 kts 39°
2026-05-07 21:57 25.27890 -81.12890 39029 ft 461 kts 39°
2026-05-07 21:58 25.32580 -81.08047 39032 ft 461 kts 39°
2026-05-07 21:58 25.37269 -81.03198 39039 ft 462 kts 39°
2026-05-07 21:59 25.41962 -80.98341 39030 ft 462 kts 39°
2026-05-07 21:59 25.46657 -80.93476 39031 ft 462 kts 39°
2026-05-07 22:00 25.51354 -80.88604 39027 ft 462 kts 39°
2026-05-07 22:00 25.56047 -80.83730 39028 ft 463 kts 39°
2026-05-07 22:01 25.60742 -80.78849 39025 ft 463 kts 39°
2026-05-07 22:01 25.65432 -80.73968 39019 ft 463 kts 39°
2026-05-07 22:02 25.70229 -80.69235 39015 ft 459 kts 31°
2026-05-07 22:02 25.75721 -80.65900 39008 ft 449 kts 16°
2026-05-07 22:03 25.81708 -80.64131 39005 ft 444 kts
2026-05-07 22:03 25.87754 -80.62695 39009 ft 444 kts
2026-05-07 22:04 25.93794 -80.61251 39011 ft 444 kts
2026-05-07 22:04 25.99846 -80.59809 39008 ft 445 kts
2026-05-07 22:05 26.05902 -80.58365 39008 ft 445 kts
2026-05-07 22:05 26.11962 -80.56919 39012 ft 445 kts
2026-05-07 22:06 26.18022 -80.55471 39014 ft 445 kts
2026-05-07 22:06 26.24046 -80.54031 39010 ft 446 kts
2026-05-07 22:07 26.30108 -80.52579 39018 ft 446 kts
2026-05-07 22:07 26.36173 -80.51126 39014 ft 446 kts
2026-05-07 22:08 26.42234 -80.49671 38796 ft 445 kts
2026-05-07 22:08 26.45264 -80.48944 38177 ft 447 kts
2026-05-07 22:08 26.48323 -80.48211 37250 ft 453 kts
2026-05-07 22:09 26.51409 -80.47469 36504 ft 453 kts
2026-05-07 22:09 26.54500 -80.46725 35741 ft 455 kts
2026-05-07 22:09 26.57602 -80.45985 35004 ft 455 kts
2026-05-07 22:09 26.60729 -80.45644 34228 ft 450 kts 355°
2026-05-07 22:10 26.63829 -80.45935 33399 ft 444 kts 345°
2026-05-07 22:10 26.66793 -80.46811 32620 ft 437 kts 335°
2026-05-07 22:10 26.69647 -80.47996 31783 ft 439 kts 335°
2026-05-07 22:10 26.72513 -80.49179 30990 ft 439 kts 335°
2026-05-07 22:11 26.75386 -80.50364 30249 ft 439 kts 335°
2026-05-07 22:11 26.78203 -80.51525 29682 ft 433 kts 335°
2026-05-07 22:11 26.81011 -80.52682 29113 ft 427 kts 335°
2026-05-07 22:11 26.83776 -80.53825 28552 ft 421 kts 335°
2026-05-07 22:12 26.86506 -80.54954 28010 ft 415 kts 335°
2026-05-07 22:12 26.89199 -80.56069 27449 ft 410 kts 334°
2026-05-07 22:12 26.91865 -80.57174 26903 ft 406 kts 334°
2026-05-07 22:12 26.94504 -80.58270 26367 ft 402 kts 334°
2026-05-07 22:13 26.97112 -80.59353 25826 ft 398 kts 334°
2026-05-07 22:13 26.99703 -80.60430 25255 ft 395 kts 334°
2026-05-07 22:13 27.02269 -80.61496 24742 ft 392 kts 334°
2026-05-07 22:13 27.04817 -80.62555 24185 ft 389 kts 334°
2026-05-07 22:14 27.07311 -80.63593 23652 ft 387 kts 335°
2026-05-07 22:14 27.09825 -80.64639 23122 ft 383 kts 335°
2026-05-07 22:14 27.12308 -80.65673 22705 ft 376 kts 335°
2026-05-07 22:14 27.14805 -80.66723 22470 ft 393 kts 335°
2026-05-07 22:15 27.17389 -80.67812 22171 ft 396 kts 335°
2026-05-07 22:15 27.19953 -80.68885 21859 ft 390 kts 335°
2026-05-07 22:15 27.22485 -80.69944 21557 ft 387 kts 335°
2026-05-07 22:15 27.25005 -80.71001 21256 ft 386 kts 335°
2026-05-07 22:16 27.27517 -80.72056 20963 ft 385 kts 335°
2026-05-07 22:16 27.30024 -80.73109 20668 ft 383 kts 335°
2026-05-07 22:16 27.32516 -80.74157 20379 ft 381 kts 335°
2026-05-07 22:16 27.34999 -80.75201 20125 ft 378 kts 335°
2026-05-07 22:17 27.37435 -80.76224 19870 ft 371 kts 335°
2026-05-07 22:17 27.39829 -80.77246 19510 ft 364 kts 335°
2026-05-07 22:17 27.42136 -80.78247 19238 ft 359 kts 335°
2026-05-07 22:17 27.44468 -80.79265 18974 ft 360 kts 335°
2026-05-07 22:18 27.46806 -80.80284 18698 ft 360 kts 335°
2026-05-07 22:18 27.51459 -80.82305 18135 ft 356 kts 335°
2026-05-07 22:18 27.53763 -80.83304 17856 ft 354 kts 335°
2026-05-07 22:19 27.56059 -80.84301 17580 ft 354 kts 335°
2026-05-07 22:19 27.58299 -80.85431 17311 ft 352 kts 332°
2026-05-07 22:19 27.60521 -80.86600 17043 ft 352 kts 332°
2026-05-07 22:19 27.62740 -80.87762 16771 ft 351 kts 332°
2026-05-07 22:20 27.64923 -80.88904 16507 ft 350 kts 332°
2026-05-07 22:20 27.67129 -80.90058 16230 ft 349 kts 332°
2026-05-07 22:20 27.69330 -80.91211 15976 ft 349 kts 332°
2026-05-07 22:20 27.71533 -80.92365 15709 ft 349 kts 332°
2026-05-07 22:21 27.73739 -80.93523 15434 ft 348 kts 332°
2026-05-07 22:21 27.75932 -80.94673 15159 ft 347 kts 332°
2026-05-07 22:21 27.78124 -80.95824 14895 ft 347 kts 332°
2026-05-07 22:21 27.80311 -80.96971 14628 ft 345 kts 332°
2026-05-07 22:22 27.82484 -80.98113 14366 ft 345 kts 332°
2026-05-07 22:22 27.84661 -80.99258 14102 ft 345 kts 332°
2026-05-07 22:22 27.86832 -81.00400 13837 ft 344 kts 332°
2026-05-07 22:22 27.89002 -81.01542 13549 ft 344 kts 332°
2026-05-07 22:23 27.91165 -81.02680 13275 ft 343 kts 332°
2026-05-07 22:23 27.93324 -81.03812 13023 ft 342 kts 333°
2026-05-07 22:23 27.95548 -81.04779 12754 ft 342 kts 336°
2026-05-07 22:23 27.97778 -81.05716 12488 ft 341 kts 336°
2026-05-07 22:24 27.99970 -81.06642 12241 ft 340 kts 336°
2026-05-07 22:24 28.02186 -81.07579 11982 ft 339 kts 336°
2026-05-07 22:24 28.04390 -81.08512 11722 ft 338 kts 336°
2026-05-07 22:24 28.06588 -81.09444 11463 ft 337 kts 336°
2026-05-07 22:25 28.08780 -81.10374 11208 ft 336 kts 336°
2026-05-07 22:25 28.10954 -81.11318 10946 ft 333 kts 335°
2026-05-07 22:25 28.13092 -81.12262 10821 ft 324 kts 335°
2026-05-07 22:25 28.15149 -81.13171 10724 ft 311 kts 335°
2026-05-07 22:26 28.17133 -81.14048 10506 ft 302 kts 335°
2026-05-07 22:26 28.19081 -81.14910 10139 ft 300 kts 335°
2026-05-07 22:26 28.21025 -81.15770 9748 ft 298 kts 335°
2026-05-07 22:26 28.22932 -81.16612 9506 ft 290 kts 335°
2026-05-07 22:27 28.24818 -81.17446 9281 ft 293 kts 335°
2026-05-07 22:27 28.26745 -81.18198 9053 ft 292 kts 342°
2026-05-07 22:27 28.28756 -81.18559 8861 ft 294 kts 353°
2026-05-07 22:27 28.30807 -81.18598 8693 ft 295 kts 356°
2026-05-07 22:28 28.32855 -81.18627 8519 ft 293 kts 356°
2026-05-07 22:28 28.34868 -81.18663 8427 ft 284 kts 356°
2026-05-07 22:28 28.36801 -81.18698 8333 ft 273 kts 355°
2026-05-07 22:28 28.38044 -81.18721 8250 ft 265 kts 355°
2026-05-07 22:29 28.39850 -81.18752 8124 ft 255 kts 355°
2026-05-07 22:29 28.41620 -81.18773 7830 ft 253 kts 356°
2026-05-07 22:29 28.43375 -81.18787 7553 ft 251 kts 356°
2026-05-07 22:29 28.45116 -81.18799 7242 ft 249 kts 356°
2026-05-07 22:30 28.46848 -81.18813 6928 ft 249 kts 356°
2026-05-07 22:30 28.48576 -81.18827 6662 ft 246 kts 356°
2026-05-07 22:30 28.50279 -81.18840 6396 ft 244 kts 356°
2026-05-07 22:30 28.51970 -81.18856 6126 ft 241 kts 356°
2026-05-07 22:31 28.53641 -81.18870 6046 ft 244 kts 356°
2026-05-07 22:31 28.55352 -81.18883 5996 ft 245 kts 356°
2026-05-07 22:31 28.57049 -81.18885 5984 ft 245 kts 357°
2026-05-07 22:31 28.58726 -81.18880 5986 ft 243 kts 356°
2026-05-07 22:32 28.60417 -81.18877 5983 ft 243 kts 357°
2026-05-07 22:32 28.62117 -81.18873 5982 ft 244 kts 357°
2026-05-07 22:32 28.63798 -81.19026 5959 ft 240 kts 339°
2026-05-07 22:32 28.65170 -81.20007 5965 ft 234 kts 309°
2026-05-07 22:33 28.65875 -81.21657 5971 ft 235 kts 278°
2026-05-07 22:33 28.65860 -81.23511 5983 ft 234 kts 266°
2026-05-07 22:33 28.65736 -81.25350 5975 ft 232 kts 266°
2026-05-07 22:33 28.65616 -81.27184 5993 ft 231 kts 266°
2026-05-07 22:34 28.65490 -81.29006 5994 ft 234 kts 266°
2026-05-07 22:34 28.65357 -81.30861 6001 ft 232 kts 266°
2026-05-07 22:34 28.65215 -81.32679 5994 ft 232 kts 266°
2026-05-07 22:34 28.65076 -81.34518 6003 ft 231 kts 266°
2026-05-07 22:35 28.64941 -81.36360 5999 ft 238 kts 266°
2026-05-07 22:35 28.64808 -81.38224 5992 ft 231 kts 266°
2026-05-07 22:35 28.64672 -81.40068 6003 ft 236 kts 266°
2026-05-07 22:35 28.64542 -81.41936 6002 ft 238 kts 266°
2026-05-07 22:36 28.64408 -81.43815 5996 ft 234 kts 266°
2026-05-07 22:36 28.64272 -81.45614 5999 ft 232 kts 266°
2026-05-07 22:36 28.64133 -81.47467 5998 ft 236 kts 266°
2026-05-07 22:36 28.63995 -81.49321 6005 ft 231 kts 266°
2026-05-07 22:37 28.63853 -81.51127 6006 ft 230 kts 266°
2026-05-07 22:37 28.63713 -81.52974 6007 ft 235 kts 266°
2026-05-07 22:37 28.63577 -81.54829 6007 ft 235 kts 266°
2026-05-07 22:37 28.63245 -81.56621 6010 ft 233 kts 244°
2026-05-07 22:38 28.62156 -81.58021 6025 ft 242 kts 214°
2026-05-07 22:38 28.60551 -81.58608 6026 ft 248 kts 184°
2026-05-07 22:38 28.58815 -81.58401 6032 ft 254 kts 174°
2026-05-07 22:38 28.57077 -81.58092 6034 ft 251 kts 174°
2026-05-07 22:39 28.55348 -81.57794 6035 ft 251 kts 174°
2026-05-07 22:39 28.53629 -81.57518 6033 ft 249 kts 174°
2026-05-07 22:39 28.51900 -81.57234 6036 ft 253 kts 174°
2026-05-07 22:39 28.50184 -81.56948 6039 ft 252 kts 174°
2026-05-07 22:40 28.48448 -81.56638 6040 ft 252 kts 174°
2026-05-07 22:40 28.46713 -81.56341 6035 ft 252 kts 174°
2026-05-07 22:40 28.44984 -81.56054 6028 ft 251 kts 174°
2026-05-07 22:40 28.43253 -81.55776 6028 ft 253 kts 174°
2026-05-07 22:41 28.41516 -81.55478 6033 ft 252 kts 174°
2026-05-07 22:41 28.39782 -81.55166 6029 ft 252 kts 174°
2026-05-07 22:41 28.38049 -81.54870 6028 ft 251 kts 174°
2026-05-07 22:41 28.36318 -81.54580 6003 ft 251 kts 174°
2026-05-07 22:42 28.34598 -81.54298 5818 ft 249 kts 174°
2026-05-07 22:42 28.32885 -81.54011 5541 ft 248 kts 174°
2026-05-07 22:42 28.31191 -81.53717 5293 ft 245 kts 174°
2026-05-07 22:42 28.29508 -81.53405 5007 ft 244 kts 174°
2026-05-07 22:43 28.27844 -81.53117 4752 ft 241 kts 174°
2026-05-07 22:43 28.26187 -81.52832 4416 ft 242 kts 174°
2026-05-07 22:43 28.24525 -81.52546 4112 ft 240 kts 174°
2026-05-07 22:43 28.22893 -81.52215 3858 ft 238 kts 168°
2026-05-07 22:44 28.21449 -81.51267 3530 ft 246 kts 135°
2026-05-07 22:44 28.20617 -81.49595 3294 ft 248 kts 105°
2026-05-07 22:44 28.20492 -81.47658 3155 ft 249 kts 91°
2026-05-07 22:44 28.20473 -81.45667 3069 ft 251 kts 91°
2026-05-07 22:45 28.20456 -81.43718 3009 ft 247 kts 91°
2026-05-07 22:45 28.20477 -81.41721 3003 ft 255 kts 82°
2026-05-07 22:45 28.21045 -81.39891 3010 ft 250 kts 63°
2026-05-07 22:45 28.21783 -81.38123 3004 ft 244 kts 63°
2026-05-07 22:46 28.22498 -81.36390 3006 ft 241 kts 63°
2026-05-07 22:46 28.23194 -81.34706 3001 ft 229 kts 63°
2026-05-07 22:46 28.24066 -81.33301 2999 ft 209 kts 33°
2026-05-07 22:46 28.25339 -81.32633 3005 ft 200 kts
2026-05-07 22:47 28.26705 -81.32478 2981 ft 194 kts 356°
2026-05-07 22:47 28.28058 -81.32515 2680 ft 195 kts 353°
2026-05-07 22:47 28.29407 -81.32530 2395 ft 191 kts 354°
2026-05-07 22:47 28.30727 -81.32545 2142 ft 186 kts 355°
2026-05-07 22:48 28.31991 -81.32558 1895 ft 177 kts 354°
2026-05-07 22:48 28.33181 -81.32571 1663 ft 164 kts 354°
2026-05-07 22:48 28.34285 -81.32582 1453 ft 154 kts 354°
2026-05-07 22:48 28.35332 -81.32594 1266 ft 148 kts 354°
2026-05-07 22:49 28.36352 -81.32606 1077 ft 144 kts 354°
2026-05-07 22:49 28.37327 -81.32615 904 ft 137 kts 354°
2026-05-07 22:49 28.38249 -81.32625 722 ft 137 kts 356°
2026-05-07 22:49 28.39206 -81.32637 594 ft 131 kts 355°
2026-05-07 22:50 28.40141 -81.32640 421 ft 137 kts 356°
2026-05-07 22:50 28.41120 -81.32641 236 ft 142 kts 352°
2026-05-07 22:50 28.42089 -81.32666 109 ft 134 kts 353°
2026-05-07 22:50 28.42918 -81.32687 102 ft 106 kts 359°
2026-05-07 22:51 28.43451 -81.32693 100 ft 51 kts
2026-05-07 22:51 28.43669 -81.32638 99 ft 15 kts 30°
2026-05-07 22:51 28.43751 -81.32534 99 ft 22 kts 57°
2026-05-07 22:51 28.43839 -81.32366 99 ft 25 kts 57°
2026-05-07 22:52 28.43895 -81.32264 100 ft 14 kts 58°
2026-05-07 22:52 28.43952 -81.32152 100 ft 19 kts 59°
2026-05-07 22:52 28.43983 -81.32011 100 ft 20 kts 102°
2026-05-07 22:52 28.43912 -81.31868 98 ft 21 kts 154°
2026-05-07 22:53 28.43846 -81.31735 100 ft 22 kts 100°
2026-05-07 22:53 28.43744 -81.31628 102 ft 22 kts 150°
2026-05-07 22:53 28.43639 -81.31566 95 ft 8 kts 148°
2026-05-07 22:53 28.43614 -81.31549 94 ft 0 kts 149°